Simultaneous Nadir Overpasses (SNOs) Predictions

Prediction of SNOs between GOES-15 and TERRA Satellite Orbit:

Table of predicted SNOs for the next 14.0 days since TLE Epoch: 7/1/2022
Index Date Time (GOES-15) GOES-15 Lat,Lon TERRA Lat,Lon Distance(km) Time Diff (sec)
1 07/02/2022 07:06:25 0.11,-128.46 -0.54,-131.63 359.30 80
2 07/04/2022 06:54:09 0.12,-128.46 0.07,-128.67 23.80 80
3 07/06/2022 06:39:14 0.13,-128.45 0.74,-125.72 311.40 80
4 07/06/2022 19:03:08 -0.10,-128.48 0.38,-130.87 271.37 80
5 07/08/2022 18:48:12 -0.11,-128.46 -0.24,-127.91 63.30 80
6 07/10/2022 18:35:56 -0.11,-128.44 -0.87,-124.95 397.02 80
7 07/11/2022 06:59:57 0.07,-128.40 -0.30,-130.13 196.30 80
8 07/13/2022 06:45:02 0.09,-128.37 0.33,-127.17 136.17 80
9 07/13/2022 19:08:55 -0.05,-128.38 0.79,-132.32 447.78 80
10 07/15/2022 06:32:46 0.10,-128.33 0.97,-124.21 468.32 80
